Flag for Malaysia Weather past 2 weeks in Kuching, Malaysia

Now
75 °F

Fog.


Feels Like: 74 °F
Forecast: 77 / 90 °F
Wind: 2 mph from Northwest

Location: Kuching Airport

Current Time: Mar 31, 2015 at 4:39:47 AM

Latest Report: Mar 31, 2015 at 4:00 AM


Visibility: 2 mi

Pressure: 29.83 "Hg

Humidity: 94%

Dew point: 73 °F

Location of KuchingLocation

Historic Weather in Kuching — Graph

°F

Kuching temperature yesterday

Maximum temperature yesterday: 88 °F (at 12:00 PM)
Minimum temperature yesterday: 75 °F (at 10:30 PM)
Average temperature yesterday: 79 °F

Past Weeks' High & Low Weather Summary

 TemperatureHumidityPressure
High91 °F (Mar 26, 2:00 PM)100% (Mar 21, 5:00 AM)30.01 "Hg (Mar 21, 5:00 AM)
Low73 °F (Mar 16, 3:30 AM)49% (Mar 26, 2:30 PM)29.77 "Hg (Mar 17, 4:30 PM)
Average81 °F82%29.88 "Hg
* Reported Mar 16 3:00 AM — Mar 31 3:00 AM, Kuching, Weather by CustomWeather, © 2015

Note: Actual official high and low records may vary slightly from our data, if they occured in-between our weather recording intervals... More about our weather records

Advertising

Kuching weather history for previous 24 hours

 ConditionsComfort  
Time TempWeatherWind HumidityBarometerVisibility
3:00 AM
Tue, Mar 31
75 °FFog.5 mph94%29.86 "Hg1 mi
2:30 AM75 °FFog.2 mph94%29.86 "Hg3 mi
2:00 AM75 °FFog.1 mph94%29.86 "Hg3 mi
1:30 AM75 °FFog.1 mph94%29.86 "Hg3 mi
1:00 AM75 °FFog.No wind94%29.86 "Hg3 mi
12:30 AM75 °FFog.2 mph94%29.86 "Hg3 mi
12:00 AM75 °FFog.1 mph100%29.89 "Hg2 mi
11:30 PM
Mon, Mar 30
75 °FFog.No wind100%29.89 "Hg2 mi
11:00 PM75 °FFog.3 mph100%29.89 "Hg2 mi
10:30 PM75 °FFog.3 mph100%29.89 "Hg3 mi
10:00 PM77 °FPartly cloudy.6 mph94%29.89 "HgN/A
9:30 PM77 °FPartly cloudy.3 mph94%29.89 "HgN/A
9:00 PM77 °FPartly cloudy.3 mph94%29.89 "HgN/A
8:30 PM77 °FPartly cloudy.3 mph94%29.86 "HgN/A
8:00 PM77 °FPartly cloudy.No wind94%29.86 "HgN/A
7:30 PM77 °FPartly cloudy.2 mph94%29.83 "HgN/A
7:00 PM79 °FPartly cloudy.1 mph89%29.83 "HgN/A
6:30 PM79 °FBroken clouds.2 mph89%29.83 "HgN/A
6:00 PM79 °FLight rain. Broken clouds.5 mph94%29.83 "HgN/A
5:30 PM79 °FThunderstorms. Broken clouds.3 mph89%29.83 "HgN/A
5:00 PM79 °FThunderstorms. Broken clouds.2 mph89%29.80 "Hg5 mi
4:00 PM81 °FLight rain. Broken clouds.5 mph89%29.80 "Hg4 mi
3:30 PM81 °FBroken clouds.5 mph89%29.80 "HgN/A
3:00 PM82 °FBroken clouds.6 mph79%29.80 "HgN/A
2:30 PM81 °FLight rain. Broken clouds.8 mph84%29.83 "Hg4 mi
2:00 PM82 °FLight rain. Broken clouds.10 mph84%29.83 "Hg4 mi
1:30 PM79 °FSprinkles. Broken clouds.7 mph94%29.83 "Hg1 mi
1:00 PM79 °FSprinkles. Broken clouds.10 mph89%29.86 "Hg3 mi
12:30 PM86 °FPartly sunny.8 mph70%29.86 "HgN/A
12:00 PM88 °FBroken clouds.7 mph66%29.89 "HgN/A
11:30 AM86 °FBroken clouds.5 mph70%29.89 "HgN/A
11:00 AM86 °FBroken clouds.2 mph66%29.89 "HgN/A
10:30 AM86 °FBroken clouds.3 mph66%29.89 "HgN/A
10:00 AM84 °FBroken clouds.2 mph70%29.92 "HgN/A
9:00 AM81 °FBroken clouds.2 mph84%29.89 "HgN/A
8:30 AM79 °FScattered showers. Broken clouds.7 mph89%29.89 "Hg5 mi
8:00 AM77 °FBroken clouds.5 mph94%29.89 "Hg5 mi
7:30 AM77 °FLight rain. Broken clouds.1 mph94%29.89 "Hg5 mi
7:00 AM77 °FLight rain. Broken clouds.No wind94%29.86 "Hg5 mi
6:30 AM77 °FLight rain. Partly cloudy.6 mph94%29.83 "Hg5 mi
6:00 AM77 °FLight rain. Partly cloudy.3 mph94%29.83 "Hg5 mi
5:30 AM77 °FThunderstorms. Partly cloudy.3 mph89%29.83 "HgN/A
5:00 AM77 °FThunderstorms. Partly cloudy.1 mph94%29.83 "HgN/A
4:30 AM77 °FThunderstorms. Partly cloudy.No wind89%29.83 "HgN/A
4:00 AM77 °FThunderstorms. Partly cloudy.3 mph89%29.80 "HgN/A
Weather by CustomWeather, © 2015

See weather overviewHow to use our weather pages